Meteo Giornale » Osservazioni meteo Australia » Launceston
ore: 07:30 - Osservazioni Meteo Launceston
Lat. 41° 32' S Lon. 147° 12' E Alt. 171 metri s.l.m.
8 °C
Coperto
Temp. 24 Ore
7 °C
18 °C
Nord
20.3 Km/h
Dew point 7 °C
Umidità 93 %
Visibilità 10 Km
Il sole sorge alle ore 06:36
Il sole tramonta alle ore 17:46
| Data e Ora | Cielo e Fenomeni | T °C | DP °C | Um. % | Pres. hPa | Vis. km | Vento km/h | |
|---|---|---|---|---|---|---|---|---|
| Oggi h: 07:30 | Coperto | 8 | 7 | 93 | 1017 | 10 | N 20.3 | |
| Oggi h: 07:00 | Coperto | 8 | 7 | 93 | 1017 | 10 | N 25.9 | |
| Oggi h: 06:30 | Coperto | 8 | 6 | 87 | 1017 | 10 | N 31.5 | |
| Oggi h: 06:00 | Molto Nuvoloso | 7 | 6 | 93 | 1017 | 10 | N 27.8 | |
| Oggi h: 05:30 | Coperto | 8 | 6 | 87 | 1017 | 10 | N 27.8 | |
| Oggi h: 05:00 | Coperto | 8 | 7 | 93 | 1018 | 10 | N 27.8 | |
| Oggi h: 04:30 | Molto Nuvoloso | 8 | 7 | 93 | 1018 | 10 | N 33.3 | |
| Oggi h: 04:20 | Molto Nuvoloso | 8 | 7 | 93 | 1018 | 10 | N/NO 33.3 | |
| Oggi h: 04:00 | Poco Nuvoloso | 8 | 7 | 93 | 1018 | 10 | N/NO 31.5 | |
| Oggi h: 03:30 | Sereno | 8 | 7 | 93 | 1019 | 10 | N/NO 31.5 | |
| Oggi h: 03:00 | Sereno | 8 | 7 | 93 | 1019 | 10 | N/NO 27.8 | |
| Oggi h: 02:30 | Poco Nuvoloso | 8 | 7 | 93 | 1020 | 10 | N/NO 29.6 | |
| Oggi h: 02:00 | Poco Nuvoloso | 8 | 7 | 93 | 1020 | 10 | N/NO 29.6 | |
| Oggi h: 01:30 | Sereno | 8 | 7 | 93 | 1021 | 10 | N/NO 25.9 | |
| Oggi h: 01:00 | Sereno | 8 | 7 | 93 | 1021 | 10 | N/NO 20.3 | |
| Oggi h: 00:30 | Sereno | 8 | 7 | 93 | 1021 | 10 | N/NO 20.3 | |
| Oggi h: 00:00 | Sereno | 8 | 7 | 93 | 1022 | 10 | N/NO 18.5 | |
| Ieri h: 23:30 | Sereno | 8 | 7 | 93 | 1022 | 10 | N/NO 16.7 | |
| Ieri h: 23:00 | Sereno | 8 | 7 | 93 | 1022 | 10 | N/NO 16.7 | |
| Ieri h: 22:30 | Sereno | 9 | 8 | 93 | 1023 | 10 | N/NO 25.9 | |
| Ieri h: 22:00 | Sereno | 9 | 8 | 93 | 1023 | 10 | N/NO 25.9 | |
| Ieri h: 21:30 | Sereno | 9 | 8 | 93 | 1023 | 10 | N/NO 24 | |
| Ieri h: 21:00 | Sereno | 9 | 7 | 87 | 1023 | 10 | N/NO 20.3 | |
| Ieri h: 20:30 | Sereno | 9 | 8 | 93 | 1023 | 10 | N/NO 22.2 | |
| Ieri h: 20:00 | Sereno | 9 | 8 | 93 | 1023 | 10 | N/NO 31.5 | |
| Ieri h: 19:30 | Sereno | 10 | 8 | 87 | 1023 | 10 | N/NO 29.6 | |
| Ieri h: 19:00 | Sereno | 10 | 8 | 87 | 1023 | 10 | N/NO 22.2 | |
| Ieri h: 18:30 | Sereno | 11 | 8 | 81 | 1023 | 10 | N/NO 20.3 | |
| Ieri h: 18:00 | Sereno | 11 | 8 | 81 | 1023 | 10 | N/NO 24 | |
| Ieri h: 17:30 | Sereno | 12 | 9 | 81 | 1023 | 10 | N/NO 29.6 | |
| Ieri h: 17:00 | Sereno | 14 | 9 | 71 | 1023 | 10 | N/NO 31.5 | |
| Ieri h: 16:30 | Sereno | 15 | 9 | 67 | 1023 | 10 | N/NO 29.6 | |
| Ieri h: 16:00 | Sereno | 16 | 9 | 63 | 1023 | 10 | N/NO 27.8 | |
| Ieri h: 15:30 | Sereno | 17 | 9 | 59 | 1023 | 10 | N/NO 25.9 | |
| Ieri h: 15:00 | Sereno | 17 | 9 | 59 | 1024 | 10 | N 22.2 | |
| Ieri h: 14:30 | Sereno | 17 | 8 | 55 | 1024 | 10 | N/NO 25.9 | |
| Ieri h: 14:00 | Sereno | 18 | 9 | 55 | 1024 | 10 | N/NO 24 | |
| Ieri h: 13:30 | Sereno | 17 | 8 | 55 | 1024 | 10 | N/NO 24 | |
| Ieri h: 13:00 | Sereno | 17 | 8 | 55 | 1025 | 10 | N/NO 24 | |
| Ieri h: 12:30 | Sereno | 16 | 7 | 55 | 1025 | 10 | N 22.2 | |
| Ieri h: 12:00 | Sereno | 16 | 6 | 51 | 1026 | 10 | N/NO 20.3 | |
| Ieri h: 11:30 | Sereno | 16 | 6 | 51 | 1026 | 10 | N/NO 20.3 | |
| Ieri h: 11:00 | Sereno | 14 | 6 | 58 | 1026 | 10 | N/NO 18.5 | |
| Ieri h: 10:30 | Sereno | 12 | 7 | 71 | 1027 | 10 | N 14.8 | |
| Ieri h: 10:00 | Sereno | 11 | 7 | 76 | 1027 | 10 | N 13 | |
| Ieri h: 09:30 | Sereno | 9 | 7 | 87 | 1027 | 10 | N 11.1 | |
| Ieri h: 09:00 | Sereno | 8 | 6 | 87 | 1027 | 10 | N 11.1 | |



